Wind_Speed
32 31 30 29 30 31 30 29 28 27 26 28 29 28 26 24 23 22 20 17 15 14 12 14 18 22 26 28 26 26 26 24 23 21 20 20 19 19 19 19 21 22 21 20 20 20 19 18 18 18 17 17 17 17 16 16 16 17 17 17 16 15 14 13 12 12 12 12 12 12 12 12 11 11 11 11 11 11 11 11 12 13 13 14 14 14
33 32 31 32 34 35 34 33 29 24 23 26 29 29 27 26 25 23 22 19 17 16 14 14 17 20 22 26 27 27 25 24 24 24 22 21 20 19 19 19 20 21 21 20 20 19 19 18 18 18 18 18 17 18 18 17 17 17 17 16 16 15 13 12 11 11 11 12 12 13 13 12 12 12 12 12 11 11 11 12 12 12 13 13 14 14
34 33 34 35 36 35 34 34 29 25 25 28 31 31 29 28 26 24 24 21 19 18 15 14 16 17 18 23 29 29 25 25 25 23 23 22 21 20 19 19 19 20 20 20 20 20 19 19 19 19 18 18 18 18 18 18 18 17 17 17 16 14 13 11 11 11 12 12 13 14 14 13 13 13 12 12 12 12 12 12 12 12 13 13 13 14
34 35 36 36 35 35 35 36 33 29 28 29 32 32 30 30 28 27 27 24 20 19 17 16 15 15 14 19 30 32 26 25 24 23 21 20 20 20 20 21 21 21 21 22 21 21 21 21 20 20 19 19 18 18 18 18 18 18 17 17 16 14 12 11 11 11 12 14 15 16 16 15 14 14 13 13 13 13 12 12 12 12 12 13 13 13
35 37 36 35 35 36 36 37 36 33 30 31 32 34 33 33 32 30 28 24 22 21 19 17 15 15 14 17 27 32 27 25 23 21 20 19 19 18 18 20 22 23 23 23 23 22 22 22 21 21 20 19 19 19 19 19 19 18 18 17 15 13 12 11 12 12 13 15 17 18 18 16 15 14 13 13 13 13 12 12 12 12 12 12 13 13
36 36 35 36 36 35 36 37 38 36 34 32 33 36 35 34 33 30 28 25 23 23 22 20 17 17 18 18 23 26 24 24 22 21 21 20 19 17 17 19 20 22 23 24 24 24 23 23 22 22 21 21 20 19 19 19 18 18 17 16 14 13 13 13 13 14 14 15 17 18 17 16 14 13 12 13 13 13 13 12 11 11 11 12 12 12
37 36 37 39 38 36 37 38 39 39 37 34 35 36 35 35 34 32 30 27 26 27 26 23 20 19 21 22 22 22 21 22 22 22 22 21 19 18 19 19 19 20 21 22 24 25 24 23 22 22 22 21 21 20 19 18 17 16 15 14 14 14 14 14 15 15 15 16 17 17 16 15 13 12 12 12 13 13 13 13 12 11 11 11 12 12
37 36 38 40 38 38 37 37 39 39 38 37 36 35 36 36 36 35 33 31 31 30 27 26 23 20 23 25 24 23 22 22 23 22 21 21 19 18 20 19 19 18 19 21 23 24 24 24 23 22 22 22 21 20 19 18 18 17 15 14 13 14 15 15 16 16 16 16 17 16 15 15 15 14 13 13 13 13 14 13 13 12 11 11 11 11
36 37 39 39 39 38 37 36 37 37 39 40 35 34 36 37 37 37 36 35 34 31 28 29 25 21 23 25 24 24 23 22 23 21 21 22 21 19 20 20 19 18 17 19 21 23 24 24 24 23 23 22 21 20 20 19 18 17 15 14 13 14 15 15 16 16 16 16 15 15 15 15 16 16 15 15 14 14 14 14 13 12 11 10 10 10
38 38 39 40 40 39 38 36 35 35 38 39 35 34 36 36 36 37 37 37 35 32 31 31 27 25 25 25 24 23 22 22 22 22 22 23 22 21 20 20 19 19 18 18 20 22 23 25 25 25 24 22 22 21 20 18 17 16 15 14 14 14 15 16 16 16 16 15 15 15 16 16 16 16 16 16 15 15 14 14 13 12 11 10 10 9
38 38 38 38 39 38 36 34 32 33 36 36 36 37 36 35 36 37 36 37 35 34 33 32 32 29 26 27 28 24 22 23 21 22 22 22 22 21 20 19 19 19 20 18 19 21 22 24 25 25 24 22 22 22 20 18 17 16 15 15 15 15 15 16 16 15 15 15 16 16 17 17 17 17 16 16 16 15 14 13 12 12 11 10 9 9
37 39 38 37 36 35 34 33 33 34 34 34 36 38 38 37 37 37 37 37 35 35 36 35 34 33 30 30 29 26 25 24 22 22 21 21 21 21 21 20 18 19 21 21 20 20 21 22 24 24 24 23 22 21 20 20 18 17 16 16 16 16 16 16 16 15 15 15 16 17 18 18 18 18 17 16 15 14 13 12 11 10 10 9 9 8
38 39 37 35 34 33 33 34 34 34 33 34 35 36 38 39 38 38 39 37 35 36 38 36 35 36 37 32 28 27 27 25 24 23 21 21 21 21 21 21 21 21 23 23 22 21 20 20 21 22 23 23 22 21 21 21 20 19 18 18 17 17 17 17 17 16 16 16 17 18 19 19 19 18 17 16 15 14 13 12 11 10 9 8 8 7
38 38 37 36 36 35 34 35 35 35 34 35 35 35 37 39 40 41 41 38 37 38 38 36 36 39 40 35 30 30 29 27 26 24 22 21 21 21 22 23 23 23 23 23 23 22 21 20 20 20 21 22 23 23 22 22 22 21 20 19 19 19 18 18 17 17 17 17 18 19 19 20 19 19 18 17 16 15 13 12 11 10 9 8 8 8
39 39 39 38 36 36 35 35 35 34 34 34 35 35 35 36 38 38 39 39 39 38 35 33 37 41 41 37 34 32 31 29 27 26 24 23 23 23 23 24 24 25 24 23 23 22 21 21 20 19 19 20 22 24 24 23 23 23 22 21 21 20 19 19 18 18 18 18 18 19 20 20 19 19 18 18 17 16 14 13 12 11 9 9 9 9
39 40 39 37 36 36 36 35 34 32 33 34 33 34 36 36 36 34 34 38 38 37 34 34 39 43 41 38 36 35 33 31 30 28 26 25 25 24 24 24 24 25 25 24 23 23 22 22 22 21 20 20 21 23 25 25 24 24 24 23 23 22 21 21 20 20 20 20 19 20 20 20 20 19 19 19 18 17 16 14 13 12 10 10 10 10
37 38 38 37 38 38 37 37 35 34 35 35 33 35 37 37 37 34 32 35 38 38 36 37 41 42 38 38 39 38 36 34 32 30 28 27 26 26 26 25 24 25 25 25 25 24 24 24 23 22 23 22 22 23 24 26 26 26 26 26 25 24 23 22 22 21 21 21 21 20 20 20 20 20 20 20 19 18 17 16 14 13 12 12 12 11
36 37 36 37 38 38 38 37 37 37 37 35 36 37 36 34 34 35 33 33 36 37 34 36 42 41 39 40 42 40 39 37 35 32 29 28 27 27 27 25 25 25 25 26 27 27 26 25 24 23 24 24 24 25 26 27 28 29 28 28 27 26 26 25 24 23 23 22 22 22 21 21 21 21 21 20 20 19 18 17 16 15 14 14 13 12
35 35 35 36 37 37 38 38 38 39 37 37 38 37 36 35 35 35 35 34 35 34 34 38 42 42 43 43 42 41 40 39 38 35 31 29 28 27 27 26 26 26 26 28 28 29 28 27 27 25 25 26 27 27 28 29 31 31 31 30 29 28 28 28 26 25 25 24 24 23 23 22 22 22 21 21 20 20 19 18 18 17 17 16 14 13
33 33 34 36 36 36 37 39 40 40 39 39 38 37 36 37 37 37 37 36 33 31 35 41 41 42 45 45 42 41 41 40 39 37 34 32 29 29 28 28 27 27 28 28 29 30 30 29 29 28 27 27 28 29 29 30 32 33 33 32 31 30 30 29 28 27 26 26 25 25 24 24 23 23 22 21 21 21 21 20 19 19 18 17 15 14
32 33 33 34 34 35 37 38 39 39 39 39 40 40 39 38 38 39 39 39 35 31 30 35 40 44 45 43 41 41 41 41 40 39 37 34 31 30 31 29 29 29 28 28 29 30 31 31 31 30 29 29 30 31 30 30 32 34 35 35 33 33 32 31 29 28 28 27 26 26 25 25 25 24 23 23 22 22 22 21 20 20 19 17 16 15
32 32 33 34 34 35 36 36 38 39 39 40 41 41 40 39 40 39 37 38 38 36 30 27 36 45 43 39 41 41 41 41 40 40 38 35 33 32 33 32 31 30 29 28 29 29 30 32 32 31 31 30 31 32 31 30 32 34 35 36 36 35 34 33 32 30 29 28 27 27 27 27 26 25 24 24 24 23 23 22 22 21 20 18 17 16
31 32 33 34 34 33 34 35 37 38 38 40 40 41 40 41 42 40 37 36 38 41 38 30 33 40 38 37 40 40 40 40 40 40 38 35 33 34 35 34 32 31 30 28 27 26 27 30 32 32 32 31 30 31 32 32 32 33 34 36 38 37 36 35 34 33 31 30 29 28 28 28 28 27 26 25 25 25 24 24 23 22 21 20 18 17
30 31 32 34 33 33 33 34 35 36 38 39 40 41 41 42 43 41 40 39 37 40 43 39 38 38 35 37 40 39 40 40 39 39 38 36 34 35 37 35 33 33 31 29 28 26 25 27 31 34 34 32 31 32 33 33 32 32 34 36 37 37 38 38 37 35 34 32 31 30 29 29 29 28 28 27 26 27 26 25 24 23 23 21 20 18
29 31 31 32 32 33 34 34 35 36 38 39 40 40 41 42 42 41 42 42 39 39 41 42 41 39 36 37 40 39 39 40 39 39 38 37 36 36 36 35 35 34 33 31 29 27 26 26 29 32 33 33 31 32 33 33 32 32 33 35 36 37 39 40 39 38 36 35 34 32 31 30 30 30 29 28 28 29 28 27 26 25 24 23 21 20
30 31 32 32 32 33 34 35 37 37 37 38 39 40 41 41 41 42 42 43 42 42 41 41 41 38 35 37 39 39 39 39 39 39 39 40 39 37 36 36 37 37 35 33 32 30 28 27 28 30 32 32 31 31 32 34 34 33 32 33 35 37 39 39 40 39 38 37 36 35 33 32 32 31 30 30 30 31 30 29 28 27 26 24 23 22
31 32 33 34 35 35 36 37 38 37 37 38 39 40 41 41 41 42 42 42 43 43 43 44 43 39 37 38 39 40 40 39 39 40 40 41 42 40 39 39 39 39 37 36 34 33 32 30 29 30 30 31 31 31 32 34 35 34 32 32 33 35 38 39 40 40 40 39 38 37 35 34 34 33 32 32 32 32 32 31 30 29 27 26 25 23
32 32 33 34 35 35 36 36 36 36 37 38 39 40 41 41 41 42 43 43 44 44 45 46 46 44 43 42 41 41 41 40 40 40 40 41 43 43 42 41 42 41 40 38 37 35 34 33 31 31 31 32 32 32 33 33 34 35 34 33 33 34 36 37 38 38 39 40 39 38 37 36 36 35 35 34 34 34 33 32 31 30 29 28 27 25
30 31 32 33 34 34 34 34 34 35 36 36 37 39 40 41 41 42 43 44 43 44 46 47 46 47 47 45 44 43 43 42 42 41 41 41 42 44 45 45 45 44 43 41 39 38 37 35 33 33 32 31 30 32 33 33 32 34 36 35 34 34 33 34 35 36 38 39 40 39 38 38 38 37 36 36 35 35 35 34 33 32 31 29 28 28
26 27 29 31 32 33 34 34 35 34 35 35 36 37 38 40 41 41 42 43 43 44 46 46 46 47 47 46 46 45 44 44 44 43 43 42 42 45 47 48 48 47 47 45 43 41 40 37 35 34 33 31 30 31 33 33 32 32 35 37 36 34 33 32 32 34 35 37 38 39 40 40 39 38 38 37 37 36 36 35 34 33 32 31 30 30
23 24 25 26 28 30 32 33 34 35 36 36 36 36 37 38 40 41 42 42 43 44 45 45 45 47 46 46 47 47 46 46 46 45 45 44 44 45 47 50 51 50 50 48 46 45 44 40 37 37 36 35 32 30 30 31 30 29 31 36 37 35 33 32 32 33 34 35 36 37 39 40 40 40 39 39 38 38 38 37 36 34 33 32 32 31
20 21 22 23 24 26 27 29 31 33 34 36 37 37 37 38 39 40 41 42 43 44 45 44 45 47 47 46 47 48 48 48 47 47 47 46 46 45 46 50 52 52 52 51 49 47 46 43 40 39 38 35 31 28 27 28 29 28 28 31 35 37 36 34 33 33 33 34 35 36 37 39 41 41 40 40 40 39 39 38 37 36 35 34 33 33
17 18 18 20 21 22 23 25 26 28 30 33 36 36 37 38 40 40 40 41 42 44 45 45 46 46 46 46 47 48 49 48 48 48 48 48 48 47 47 49 51 54 55 55 53 51 48 46 44 42 40 37 34 32 31 30 30 30 30 30 32 35 37 37 35 34 34 33 34 35 36 38 41 41 41 41 41 41 41 40 39 37 36 36 35 34
16 17 18 18 20 20 21 22 23 25 28 30 30 31 34 36 38 40 41 42 42 44 46 47 48 46 45 46 48 48 48 49 49 49 49 49 49 49 48 49 50 53 56 57 58 56 53 50 48 46 44 42 40 38 36 35 33 33 33 33 32 32 34 36 36 36 35 34 34 35 35 37 39 41 42 43 43 43 43 42 41 39 38 38 37 36
18 19 20 20 21 21 21 22 23 25 27 26 26 28 30 32 34 38 40 41 42 44 46 47 48 47 47 47 48 48 48 49 49 49 49 49 49 49 49 49 50 52 54 57 59 60 58 56 53 52 50 48 46 44 42 40 38 37 36 37 36 35 34 34 35 35 35 35 36 37 37 37 38 39 42 44 45 46 45 44 43 41 40 40 38 37
20 21 22 23 24 24 24 25 26 26 26 26 27 28 29 30 31 34 36 39 41 43 45 47 48 48 47 48 49 49 49 49 50 51 51 50 50 50 50 50 50 51 53 55 57 59 61 60 58 57 56 54 52 50 48 46 44 42 41 39 39 38 38 37 36 35 35 35 37 39 40 40 39 39 40 43 45 47 46 46 45 44 43 41 40 39
20 22 23 25 26 27 27 28 29 28 28 29 30 30 30 31 32 32 34 36 37 39 42 45 47 47 48 49 49 49 50 50 50 51 52 52 52 52 51 51 51 51 53 54 56 57 59 61 62 61 60 59 57 56 54 52 50 48 46 44 42 41 41 41 40 38 37 37 38 40 41 42 41 41 40 41 43 45 46 46 46 46 45 44 42 41
18 20 22 24 26 27 29 30 30 31 32 33 32 32 33 34 34 34 36 36 36 37 40 42 44 46 47 48 49 50 51 51 51 53 54 54 54 54 53 52 52 52 52 54 55 56 57 60 62 63 63 62 61 60 59 58 56 53 52 50 47 45 44 44 44 43 42 40 39 40 42 43 43 43 43 41 40 41 43 46 48 48 47 46 45 43
14 15 18 21 23 25 27 28 30 32 34 33 34 35 35 36 36 37 38 38 38 38 39 40 42 44 45 46 48 49 50 51 53 56 56 54 53 55 55 55 54 54 53 54 55 56 57 58 60 62 64 64 64 64 63 62 61 59 57 56 53 51 49 48 47 47 46 45 44 43 43 44 45 45 44 43 41 40 41 44 47 49 49 48 47 46
13 12 13 14 17 20 22 24 26 30 31 31 33 34 35 36 37 37 39 41 40 40 41 42 42 43 44 45 46 48 49 51 53 56 57 55 54 55 57 57 57 56 56 55 55 56 57 58 59 60 62 63 65 66 66 66 65 64 63 61 59 57 55 53 52 51 50 49 48 46 45 44 45 46 45 44 43 42 42 43 45 49 50 50 49 49
16 15 14 13 13 14 16 18 21 24 26 27 29 30 31 33 35 37 39 41 40 41 42 44 45 45 45 46 47 48 49 50 51 53 55 56 56 56 57 58 59 59 58 58 58 57 57 58 59 60 61 62 63 65 66 66 66 65 65 63 62 60 59 57 56 54 53 52 51 50 48 46 44 45 46 46 46 46 45 45 45 47 49 50 51 50
18 18 18 17 16 15 14 15 17 18 20 21 23 25 27 29 32 34 36 37 38 40 42 44 45 47 47 48 49 49 49 50 50 51 53 55 55 56 57 58 59 60 60 60 60 60 59 59 60 61 61 62 62 63 64 64 64 64 63 63 61 60 59 59 59 57 55 54 53 52 52 49 46 46 48 48 49 49 50 49 48 47 48 49 50 50
21 21 20 20 20 19 18 18 18 18 18 19 19 20 23 25 27 28 29 32 35 38 40 42 44 45 47 49 50 51 52 52 52 52 52 53 54 55 56 57 59 60 61 62 62 62 62 61 61 61 62 63 63 63 64 64 63 63 62 61 61 60 59 59 59 59 57 55 54 54 54 52 50 49 49 50 52 53 53 52 49 48 47 45 43 43
23 23 23 23 23 22 22 22 21 21 20 20 20 20 21 22 23 25 26 28 30 32 35 38 41 44 46 48 49 51 53 54 55 55 55 55 54 54 55 56 57 59 60 62 63 63 63 63 63 63 63 64 64 65 65 64 64 64 63 62 61 61 60 59 59 60 58 56 55 55 56 55 54 52 51 51 52 53 53 50 49 48 46 43 40 40
22 23 25 26 26 25 25 25 25 24 24 24 24 23 22 23 23 24 26 27 28 29 30 32 35 39 42 45 48 50 52 54 56 57 58 58 58 57 56 56 57 58 59 60 62 64 65 65 65 65 65 65 66 66 66 66 66 65 64 63 62 61 61 60 61 61 59 57 56 56 57 58 57 56 55 55 53 52 50 49 49 49 47 44 43 43
20 22 25 27 27 27 28 28 27 27 27 28 27 26 25 25 25 26 27 27 28 29 30 30 31 33 35 38 41 44 48 51 54 57 59 60 61 61 60 60 59 59 59 60 61 63 64 65 66 66 67 67 68 68 68 68 68 67 66 65 64 63 62 62 62 62 61 59 58 57 57 59 60 59 58 57 56 54 51 49 48 48 48 47 45 44
20 21 24 26 27 27 28 29 29 30 30 30 29 29 28 28 27 28 28 28 28 29 29 30 30 31 32 33 35 37 40 43 47 52 56 59 61 62 63 64 63 63 62 61 62 62 64 65 66 67 68 68 69 70 70 70 70 69 68 68 67 65 64 64 64 64 63 62 60 59 58 59 61 62 60 59 58 57 55 52 50 48 48 48 47 45
22 23 25 26 27 28 30 30 29 29 29 29 30 31 31 30 30 30 30 30 30 30 30 30 31 31 32 33 34 35 36 38 41 45 48 53 57 60 63 65 66 66 66 65 64 64 64 64 65 66 67 69 70 71 71 71 71 71 71 70 69 68 67 66 65 65 65 64 63 61 60 59 60 62 62 61 59 59 59 57 55 52 50 49 49 48
26 27 28 27 28 30 31 29 28 28 29 29 30 30 31 32 32 32 32 32 32 32 32 32 32 32 33 33 34 34 35 37 38 41 43 46 50 55 59 62 64 66 68 68 68 67 67 66 66 65 66 68 70 71 72 73 73 73 73 73 72 71 69 69 68 67 66 66 65 63 61 60 60 60 62 62 61 61 61 61 60 57 54 52 51 49
31 31 30 30 30 30 28 27 27 29 29 29 29 29 31 33 34 34 35 35 35 35 35 34 34 34 34 34 35 35 36 36 37 38 39 41 44 48 52 56 60 63 66 68 69 70 70 70 68 67 66 67 68 70 72 73 74 75 75 75 74 73 72 71 70 69 68 68 67 66 64 62 61 60 60 61 61 61 62 62 63 61 58 56 54 51
33 32 32 33 32 29 27 26 28 30 30 30 29 29 30 33 35 35 36 37 37 37 36 36 35 35 35 36 37 37 37 38 37 38 38 39 40 43 46 49 53 56 60 64 67 69 71 73 73 71 69 68 68 69 71 73 74 76 77 77 77 76 74 73 72 72 71 70 69 67 66 64 63 61 61 60 60 61 61 61 62 62 60 58 56 54
Wind_Direction
206 205 207 208 207 206 203 200 199 197 195 196 196 193 193 197 196 191 183 183 194 194 187 188 185 184 187 187 183 181 179 175 172 168 165 165 167 169 171 174 176 175 172 169 170 173 177 177 174 174 175 174 172 169 167 167 167 168 170 171 173 175 177 178 175 170 165 162 160 158 156 154 150 145 141 136 131 126 123 121 120 118 115 113 110 109
204 204 205 205 206 205 202 202 198 194 195 195 194 192 195 199 196 191 185 186 196 195 191 190 186 186 189 188 184 184 182 176 173 171 169 169 168 169 173 174 175 176 175 171 172 174 175 179 178 177 177 176 175 173 170 169 169 171 174 176 179 182 184 181 174 167 163 161 161 162 160 158 155 151 148 143 138 132 128 126 125 122 119 116 114 112
202 202 204 206 207 204 202 202 198 195 193 193 195 194 197 200 194 192 189 187 193 196 197 195 188 188 192 193 187 183 182 180 176 175 174 174 171 169 170 171 172 174 176 174 174 175 176 180 183 180 178 177 177 176 173 171 171 174 177 180 183 185 186 181 172 164 161 162 165 165 164 163 162 158 153 148 143 138 134 131 129 126 123 120 117 115
202 201 204 205 207 204 202 202 199 196 193 193 195 194 199 200 193 194 192 186 191 196 200 200 197 197 198 197 188 181 180 180 177 178 178 177 176 173 169 168 170 173 176 176 176 177 179 181 184 183 181 180 179 178 176 175 175 177 180 183 185 185 184 178 169 164 165 165 166 168 169 169 167 163 158 153 147 142 139 137 134 132 129 125 122 119
202 202 203 205 207 205 203 201 199 196 194 196 194 194 201 200 194 195 190 185 192 195 199 202 201 204 201 194 188 181 179 182 182 182 183 183 183 178 170 169 173 175 177 179 179 180 181 183 184 185 184 183 183 180 179 179 179 181 183 185 185 182 179 173 169 169 171 171 170 172 173 173 169 165 160 154 150 147 144 143 141 139 136 132 129 126
201 201 202 204 206 206 205 203 200 197 196 197 195 196 202 201 196 195 188 186 193 195 198 199 196 201 201 190 185 184 183 185 188 190 190 189 185 178 172 174 176 178 180 182 182 182 184 185 185 185 186 186 186 184 183 182 182 184 186 184 181 176 172 171 171 173 175 176 177 177 175 172 168 163 159 156 155 153 151 149 148 146 144 141 137 134
197 197 201 204 205 205 205 204 202 200 198 198 198 197 200 202 199 196 189 187 194 195 195 195 192 195 199 193 189 192 190 189 192 194 196 193 185 180 179 180 178 177 181 185 185 185 186 188 187 186 188 190 189 187 187 186 184 186 187 185 178 172 171 174 175 178 181 182 182 180 175 169 165 162 160 160 160 159 158 155 154 155 154 151 147 142
195 196 201 204 204 205 205 204 204 202 200 202 201 196 197 201 200 198 193 192 196 193 190 196 197 195 196 194 192 194 195 196 196 196 199 196 186 183 184 186 183 178 179 184 188 189 189 189 189 190 191 192 192 191 189 188 187 188 187 185 179 173 175 180 180 182 185 185 183 181 176 170 167 166 164 164 164 165 164 162 160 162 163 161 157 152
194 196 200 202 204 206 206 205 205 202 203 206 202 196 199 201 201 199 196 197 198 190 190 198 200 201 201 194 193 195 196 199 199 198 198 196 191 187 186 189 189 183 178 180 186 191 193 191 191 194 195 195 194 194 193 191 190 190 187 184 181 178 181 184 185 186 187 185 182 180 177 175 173 172 170 168 169 170 169 167 167 168 170 169 167 163
193 196 199 200 203 205 206 206 204 202 205 208 203 200 202 202 203 203 201 201 198 192 195 198 197 205 205 197 196 196 195 198 199 199 197 195 196 193 187 189 191 187 181 179 183 190 195 195 195 198 198 197 196 197 197 195 194 193 188 185 184 185 188 188 188 189 187 183 180 178 179 179 180 178 176 173 173 174 173 172 172 174 176 177 176 173
194 197 199 200 202 204 205 205 203 202 206 206 203 204 205 203 205 206 206 206 201 198 200 196 197 207 207 200 199 194 192 197 198 200 198 196 199 199 195 194 193 190 186 184 183 187 194 198 199 202 201 200 199 200 199 196 197 197 192 190 188 190 194 193 192 191 188 182 177 178 180 182 185 184 182 180 179 178 176 176 177 180 184 185 184 182
197 198 198 198 200 201 203 204 204 203 204 204 204 205 206 206 206 207 209 209 204 203 205 199 197 209 213 203 197 192 191 196 198 200 201 200 201 204 205 203 201 196 191 190 190 188 192 197 200 205 205 204 203 203 200 197 198 199 197 195 191 192 197 197 195 192 189 184 178 178 183 185 187 189 187 186 183 181 180 181 183 190 194 192 189 187
199 200 198 197 197 197 199 202 204 203 202 203 204 204 206 208 207 208 210 210 206 207 209 203 199 210 216 209 199 195 194 196 198 201 205 206 207 209 211 211 210 205 198 195 197 195 193 194 198 203 207 207 206 207 204 201 200 200 200 199 196 196 199 199 197 193 190 187 182 181 186 188 190 191 191 189 186 185 186 187 189 196 202 199 191 187
200 201 199 197 197 197 199 200 201 202 202 203 204 204 206 208 209 211 211 208 208 211 210 205 205 212 216 211 204 200 198 200 203 206 210 213 215 216 216 216 217 216 210 205 203 202 199 197 197 200 204 206 208 208 208 205 204 202 202 202 201 201 202 202 198 194 192 189 187 186 188 191 193 192 192 191 190 190 193 195 195 197 202 202 195 190
201 202 200 199 198 198 200 202 202 201 202 204 204 203 205 208 210 213 215 211 210 214 213 206 210 216 216 211 207 204 202 204 207 210 213 216 219 220 219 217 218 220 220 217 213 211 208 205 202 200 201 204 207 209 209 208 207 206 204 204 204 204 204 204 200 197 194 191 190 192 193 194 195 194 194 194 194 195 198 201 202 201 203 208 207 202
203 204 201 200 200 200 202 204 204 203 204 206 206 205 205 208 208 208 215 214 210 215 216 210 213 217 216 212 209 209 208 207 209 213 215 217 219 221 221 219 218 218 220 221 221 221 219 214 209 205 203 202 205 208 208 208 209 208 207 206 206 207 206 205 203 200 196 192 192 196 198 198 197 195 196 196 198 199 201 204 207 207 209 214 218 215
208 208 203 201 202 202 203 204 204 203 206 208 208 208 209 210 208 208 214 214 209 213 216 214 217 219 218 215 211 211 211 210 212 215 217 218 219 222 223 221 218 216 217 220 221 223 224 223 218 212 209 205 204 206 208 208 209 210 208 207 207 208 208 207 206 204 199 194 194 197 201 202 200 198 198 199 200 202 203 206 209 211 214 217 221 221
208 210 207 206 205 204 204 205 205 205 207 207 207 209 210 211 212 212 215 215 210 211 214 215 219 220 219 218 214 212 212 212 212 215 215 215 217 221 224 224 221 219 218 219 220 220 221 224 225 222 219 214 208 205 206 207 209 209 210 209 207 208 210 209 207 205 202 198 197 198 201 204 204 202 201 201 202 204 205 207 208 211 214 216 219 221
206 210 211 210 209 207 205 206 207 207 208 209 210 212 210 210 212 212 214 216 210 209 213 216 218 219 219 219 216 214 214 213 214 214 212 212 216 221 225 227 225 222 220 219 219 220 219 220 223 224 224 222 216 210 207 208 209 209 210 210 209 208 211 211 209 207 204 201 200 200 202 204 205 204 203 202 203 206 207 207 208 210 212 214 216 218
204 209 211 211 212 210 208 209 210 208 208 211 213 214 213 211 212 212 212 214 209 207 216 219 218 220 220 218 216 215 216 215 216 216 214 216 221 224 226 227 227 225 223 221 220 221 220 218 219 221 222 223 222 218 212 210 210 209 210 211 210 210 212 213 212 211 209 206 203 203 203 204 205 205 204 203 204 208 210 209 209 210 211 212 214 216
203 209 211 211 212 213 212 211 211 210 209 211 212 214 214 214 215 215 214 214 208 204 215 223 223 222 220 218 216 216 216 216 217 218 218 221 225 224 223 224 227 228 227 226 224 222 222 220 219 220 220 220 221 221 219 216 213 211 211 211 211 212 213 215 215 214 213 210 207 206 206 206 207 205 203 204 207 210 212 211 211 212 212 213 215 216
204 208 212 212 212 213 213 212 213 213 212 213 215 216 216 215 217 218 218 219 214 208 210 219 226 225 221 219 219 217 217 217 217 220 220 222 224 223 220 220 224 228 229 231 231 228 224 222 221 222 222 221 219 219 222 221 217 215 213 212 212 213 214 215 217 216 216 215 212 210 209 208 208 207 205 205 208 212 214 213 212 212 213 214 216 217
208 210 213 215 214 215 214 213 215 216 215 215 217 218 217 217 218 217 216 220 218 215 214 219 229 229 222 221 221 219 218 218 217 219 219 220 221 221 218 216 220 226 229 232 234 233 227 222 222 224 226 225 219 216 219 222 221 219 216 215 214 214 214 215 217 218 218 217 216 215 213 211 211 209 207 207 209 212 215 215 214 213 213 216 217 219
211 212 214 216 217 216 216 215 216 216 217 217 217 218 218 219 220 218 219 220 218 217 218 222 232 232 224 222 223 220 219 219 218 219 218 217 218 219 217 214 216 222 226 229 231 232 230 224 222 225 228 228 221 216 218 222 224 222 219 218 217 215 216 217 217 219 219 218 219 218 216 215 215 213 210 209 210 213 215 216 215 214 215 217 219 221
212 213 214 216 218 218 218 217 217 216 217 218 218 220 220 220 221 220 221 223 222 220 218 221 229 231 225 223 223 221 220 219 219 219 218 216 216 217 217 215 215 219 223 225 225 226 229 228 224 225 228 228 223 219 219 220 222 225 224 222 220 218 218 219 218 219 220 219 219 219 217 217 218 217 215 213 213 214 216 216 217 217 217 218 220 223
213 213 213 215 217 218 219 218 217 217 217 218 218 220 221 221 221 221 222 223 225 225 222 222 227 228 226 226 225 224 223 221 219 219 218 217 215 215 217 217 216 217 220 222 223 221 223 227 228 227 227 228 226 225 224 221 219 223 226 226 224 222 220 220 220 220 221 221 221 219 218 218 218 219 219 217 217 217 217 216 217 218 219 219 221 223
217 216 215 217 217 218 219 219 218 217 218 218 218 220 221 221 221 222 222 223 225 226 224 225 227 227 227 227 227 226 226 224 221 219 218 217 216 215 216 216 216 215 217 220 222 221 220 224 228 228 227 229 231 233 233 228 221 219 224 229 230 227 224 222 222 221 222 223 223 221 220 219 219 219 220 219 219 220 220 218 218 219 219 220 221 223
223 222 221 222 222 223 223 222 221 219 219 219 218 219 221 222 222 222 222 223 225 226 226 227 228 229 229 229 229 228 227 227 225 221 218 217 217 216 215 215 215 214 216 219 221 222 221 222 225 227 225 227 232 236 237 234 227 220 220 225 229 230 229 227 224 223 223 224 224 224 223 223 221 220 220 220 221 222 223 222 220 220 221 221 222 223
227 228 228 228 228 228 229 228 227 225 223 222 221 220 221 222 223 223 224 225 225 226 227 228 229 231 231 231 232 231 229 228 228 225 221 218 217 217 216 215 215 214 215 218 220 222 223 222 222 224 224 224 229 235 237 238 235 227 221 222 225 228 229 230 228 227 226 226 225 225 225 225 225 224 223 223 222 223 225 225 224 223 223 223 223 224
229 230 231 231 232 232 232 233 233 231 229 227 224 223 222 223 224 225 226 226 226 227 228 228 229 231 231 232 233 234 232 231 229 228 225 221 218 217 216 216 216 215 214 217 220 221 222 222 222 222 221 221 224 230 234 237 240 235 226 222 223 226 227 229 230 230 231 231 229 227 226 227 227 226 226 226 225 225 226 227 227 226 226 225 226 227
230 231 231 231 233 234 234 234 235 235 234 232 230 228 226 225 225 226 228 228 229 229 229 229 229 230 231 231 233 234 234 233 231 230 229 226 222 218 217 217 217 216 215 216 219 222 221 221 222 223 221 220 220 223 228 233 239 241 234 226 224 225 226 228 229 229 231 232 233 232 230 230 229 229 228 229 229 229 228 228 229 229 228 228 228 229
229 230 230 231 232 233 233 234 235 235 236 235 234 231 229 228 227 226 227 229 230 232 232 232 232 231 230 231 232 233 235 235 234 233 231 229 226 222 218 217 218 217 217 217 219 222 222 221 222 224 223 220 219 221 226 231 236 240 240 235 230 226 225 227 229 230 231 232 233 234 234 233 232 231 231 231 232 233 233 232 231 231 231 231 231 231
229 230 230 231 232 233 232 233 233 234 235 236 235 233 233 232 230 229 229 229 230 232 233 234 234 232 231 232 233 234 234 235 236 235 234 232 231 227 222 219 219 219 219 219 220 221 222 221 221 222 221 219 217 219 223 229 234 239 242 243 240 234 229 227 227 229 232 233 235 235 235 235 234 233 232 233 234 236 236 236 235 234 234 234 233 233
231 232 232 233 234 235 234 234 234 234 235 235 234 235 235 234 232 231 230 229 230 232 233 234 234 234 233 234 234 234 235 235 236 237 236 235 234 231 228 223 221 220 221 221 223 223 224 223 222 221 219 217 216 217 220 224 230 236 241 244 246 244 240 235 231 230 231 234 236 238 238 237 236 234 233 232 233 236 237 238 238 237 237 237 237 236
237 237 237 237 238 238 238 238 238 238 239 238 236 236 235 234 234 234 232 231 231 233 234 234 235 235 236 236 236 236 236 236 236 237 237 237 236 234 232 228 225 223 222 222 224 226 226 225 223 223 221 219 218 218 219 221 225 231 237 242 245 247 246 244 240 237 236 237 239 240 240 241 240 239 236 234 233 235 236 238 239 239 240 240 241 240
243 242 242 241 242 242 241 241 240 241 242 242 240 239 238 236 236 236 235 233 232 233 234 234 234 235 236 236 236 237 237 238 238 238 237 237 237 236 234 232 229 226 225 223 223 225 226 226 225 225 225 223 222 221 221 222 224 227 231 236 241 245 247 247 246 244 241 240 241 241 241 242 242 242 241 238 236 236 237 238 240 240 241 241 242 242
247 246 244 243 243 243 242 242 243 243 243 242 242 242 242 241 239 238 238 235 233 235 236 236 235 235 236 236 236 237 238 238 239 239 238 237 237 237 236 234 232 229 228 226 225 225 226 226 226 226 226 226 226 225 224 225 226 227 228 231 235 240 244 247 248 247 244 242 242 243 243 243 243 243 243 242 240 239 239 239 240 241 242 242 243 243
252 250 247 245 244 243 243 243 244 243 242 242 242 242 242 243 242 242 242 240 237 236 237 237 237 237 237 237 237 237 237 238 239 240 238 236 237 237 237 236 234 232 230 229 228 227 226 226 227 227 227 227 228 228 228 228 229 230 230 230 231 234 239 244 247 248 247 245 244 244 244 244 243 243 244 243 243 241 240 240 241 241 242 242 243 243
255 253 250 247 245 244 243 243 243 243 243 243 242 241 240 241 241 242 243 243 241 240 240 239 239 239 239 239 239 238 237 237 239 239 238 236 237 237 237 237 236 235 233 231 230 229 229 228 228 228 229 229 229 229 230 231 231 232 232 233 234 235 236 239 243 246 247 246 246 246 246 245 245 245 245 245 244 243 242 241 240 240 241 241 242 242
254 253 251 248 246 246 244 243 244 244 244 244 243 242 241 240 240 240 241 242 243 243 243 243 242 241 241 241 241 241 239 239 239 240 239 238 238 238 238 238 237 236 235 233 231 230 230 229 229 229 229 230 230 231 231 232 234 234 236 237 237 237 237 237 239 242 244 246 247 247 248 248 247 247 246 245 245 245 244 242 241 240 239 240 240 240
253 251 251 249 248 247 245 244 246 247 246 244 244 244 243 243 242 242 241 242 243 243 244 244 244 244 244 243 243 243 243 242 242 241 241 240 239 238 238 238 238 237 236 235 234 232 231 230 230 230 230 230 231 232 232 233 234 236 237 237 237 237 237 236 237 238 240 244 246 247 247 246 247 247 247 245 244 243 242 241 240 239 239 239 239 239
253 251 250 249 248 247 245 244 246 248 247 246 246 247 247 246 246 245 245 245 245 243 243 244 244 244 245 245 245 246 246 245 244 244 243 243 242 241 240 239 239 239 238 237 235 234 233 232 231 231 231 231 231 232 233 233 234 235 236 237 236 236 236 236 236 236 237 240 243 245 246 245 245 247 247 245 243 243 242 241 240 239 238 237 237 238
253 252 250 249 247 246 245 245 245 246 248 249 249 249 249 250 250 250 249 247 247 246 245 245 245 245 245 245 245 246 247 247 247 246 246 245 244 243 242 241 240 240 240 240 238 236 234 234 233 232 232 232 231 232 233 234 234 235 235 236 236 235 234 235 235 236 236 238 240 242 244 244 245 246 247 246 245 245 244 244 244 243 242 242 242 242
254 252 250 249 248 246 245 245 245 247 248 250 250 249 250 251 252 251 249 248 249 249 249 248 247 247 246 246 246 246 246 247 248 248 248 248 247 246 245 244 242 241 241 241 241 239 237 235 234 233 233 233 233 232 232 233 234 235 235 236 236 235 234 234 235 235 235 236 238 239 241 241 243 245 247 247 247 247 247 247 248 248 248 247 248 248
257 253 251 249 248 247 247 247 247 247 248 249 250 250 251 251 251 251 251 251 250 251 251 251 250 249 248 248 247 247 247 247 247 248 248 249 249 248 247 246 245 244 242 242 242 241 240 238 236 235 234 234 234 233 233 233 234 234 235 236 236 235 235 234 235 235 235 235 236 238 238 239 240 242 244 246 248 249 249 248 248 248 247 245 244 245
261 258 255 253 250 249 249 249 248 248 247 248 250 251 252 252 251 251 252 253 253 253 254 254 254 254 252 251 250 249 249 248 248 248 248 248 249 249 248 248 247 246 245 243 242 242 241 241 239 237 236 235 235 234 233 233 234 234 235 236 236 236 236 235 235 236 235 235 235 236 237 238 239 240 241 244 247 249 250 249 249 249 248 246 245 244
266 262 258 255 252 250 249 249 248 248 248 249 251 252 252 252 252 252 253 253 253 254 255 255 256 256 256 255 254 252 251 251 250 250 249 249 249 249 249 249 248 248 247 246 244 243 242 242 241 240 238 237 236 235 234 234 234 234 235 236 236 237 236 236 236 236 235 235 235 236 237 237 239 240 241 242 244 248 250 251 250 249 248 248 247 245
270 266 263 259 253 249 247 247 247 249 250 250 250 251 251 252 252 253 253 253 253 254 254 254 255 255 256 256 256 255 254 254 253 252 251 251 250 250 250 249 249 249 249 248 246 245 243 242 242 242 241 240 238 237 236 234 234 234 235 236 236 237 237 237 236 236 235 235 234 235 236 237 238 240 241 242 243 245 248 250 251 251 251 251 250 247
272 269 267 263 257 252 249 248 250 251 252 251 250 250 251 251 251 252 253 254 254 254 254 254 254 254 255 256 256 256 256 256 256 255 254 253 252 252 252 251 250 249 249 249 248 247 246 244 243 242 243 242 241 239 237 236 235 234 234 235 236 237 238 238 238 237 236 235 235 235 236 238 238 239 240 242 243 245 246 248 249 251 252 253 253 251
273 271 269 267 263 258 254 252 253 254 255 256 256 254 252 250 249 249 251 253 254 254 254 254 254 254 255 256 256 257 257 257 258 257 257 256 255 255 254 253 252 251 250 250 249 248 248 246 244 243 242 243 242 241 240 238 236 235 234 234 235 236 238 239 239 239 237 237 237 236 236 237 238 239 240 242 243 244 245 246 248 249 251 252 253 253
273 272 270 268 265 261 256 255 256 259 261 263 262 260 257 255 252 250 250 251 252 253 253 253 254 255 256 256 257 257 258 258 258 258 259 259 259 258 257 256 255 253 252 251 250 249 248 248 246 244 243 242 243 243 242 240 238 237 235 234 234 235 237 238 239 240 239 238 238 238 238 237 238 239 240 241 243 244 245 246 247 248 249 249 251 252
Height
5852 5855 5857 5860 5863 5865 5868 5870 5871 5873 5875 5878 5880 5883 5885 5886 5887 5888 5890 5892 5893 5895 5896 5897 5897 5898 5899 5900 5902 5905 5906 5908 5909 5910 5912 5913 5914 5915 5915 5917 5918 5920 5921 5921 5923 5925 5926 5928 5929 5930 5932 5933 5934 5935 5936 5937 5939 5940 5941 5942 5943 5944 5944 5945 5946 5947 5947 5948 5948 5949 5949 5950 5950 5951 5951 5951 5952 5952 5952 5953 5953 5953 5953 5953 5953 5953
5849 5852 5854 5856 5857 5860 5863 5866 5869 5873 5875 5877 5879 5882 5883 5884 5885 5888 5890 5891 5893 5894 5895 5896 5897 5898 5899 5900 5902 5904 5906 5907 5908 5909 5910 5912 5913 5914 5915 5917 5918 5920 5921 5922 5923 5924 5926 5928 5929 5931 5932 5933 5934 5935 5936 5937 5939 5940 5941 5942 5943 5944 5945 5946 5947 5947 5948 5949 5949 5949 5950 5950 5951 5951 5951 5952 5952 5953 5953 5954 5954 5954 5954 5954 5954 5954
5846 5849 5851 5852 5854 5857 5861 5865 5869 5872 5874 5876 5878 5880 5882 5883 5885 5888 5889 5890 5892 5893 5894 5896 5897 5898 5899 5899 5900 5903 5906 5907 5908 5909 5910 5910 5912 5913 5914 5916 5918 5919 5920 5921 5923 5924 5926 5928 5929 5931 5932 5933 5934 5935 5936 5937 5939 5940 5941 5942 5943 5944 5945 5946 5947 5948 5949 5949 5949 5950 5950 5951 5951 5951 5952 5952 5953 5954 5954 5955 5955 5955 5955 5955 5955 5955
5844 5846 5847 5850 5852 5855 5859 5862 5866 5869 5872 5874 5876 5879 5881 5882 5884 5885 5886 5889 5891 5892 5894 5895 5897 5898 5898 5899 5899 5901 5904 5906 5907 5909 5910 5911 5912 5912 5913 5914 5916 5917 5919 5921 5922 5924 5925 5927 5929 5930 5931 5932 5934 5935 5936 5937 5939 5940 5941 5942 5943 5944 5945 5946 5947 5948 5949 5949 5949 5950 5950 5951 5951 5952 5953 5953 5954 5954 5955 5956 5956 5956 5956 5956 5957 5957
5840 5842 5845 5848 5850 5853 5856 5859 5863 5867 5870 5872 5874 5877 5878 5879 5881 5883 5886 5888 5890 5892 5894 5895 5897 5897 5898 5898 5898 5900 5903 5905 5907 5908 5910 5911 5912 5913 5913 5914 5915 5916 5918 5920 5921 5923 5925 5926 5928 5929 5931 5932 5933 5935 5936 5937 5938 5940 5941 5942 5943 5944 5945 5946 5947 5948 5948 5949 5949 5949 5950 5951 5952 5952 5953 5954 5955 5955 5956 5957 5957 5957 5958 5958 5958 5958
5836 5840 5843 5845 5847 5850 5853 5856 5860 5864 5867 5870 5872 5874 5876 5878 5880 5883 5886 5888 5890 5892 5893 5895 5896 5897 5897 5898 5899 5900 5902 5903 5905 5907 5908 5910 5911 5912 5913 5914 5915 5916 5918 5919 5920 5922 5924 5925 5927 5928 5930 5931 5933 5934 5936 5937 5938 5939 5941 5942 5943 5944 5945 5946 5947 5947 5948 5948 5949 5949 5950 5951 5953 5953 5954 5955 5955 5956 5957 5957 5958 5958 5959 5959 5959 5959
5832 5836 5839 5841 5844 5847 5850 5853 5857 5860 5864 5867 5869 5871 5874 5876 5880 5882 5885 5887 5888 5889 5892 5894 5895 5896 5896 5896 5897 5899 5901 5902 5903 5904 5906 5908 5910 5911 5912 5913 5914 5916 5917 5919 5920 5922 5923 5924 5926 5928 5929 5931 5932 5934 5935 5937 5938 5939 5941 5942 5943 5944 5945 5946 5946 5947 5948 5948 5949 5950 5951 5952 5953 5954 5955 5955 5956 5957 5957 5958 5959 5959 5960 5960 5960 5960
5830 5833 5836 5839 5842 5844 5847 5851 5854 5858 5862 5864 5865 5868 5872 5874 5877 5880 5883 5884 5884 5887 5891 5893 5894 5895 5895 5895 5896 5898 5899 5900 5902 5903 5905 5907 5909 5911 5912 5913 5913 5914 5916 5917 5919 5921 5922 5924 5926 5927 5928 5930 5932 5933 5935 5936 5938 5939 5940 5942 5943 5944 5945 5946 5946 5947 5947 5948 5949 5951 5952 5953 5953 5954 5955 5955 5956 5957 5958 5958 5959 5960 5961 5961 5962 5962
5828 5830 5832 5836 5840 5842 5845 5848 5851 5856 5859 5860 5863 5867 5869 5871 5875 5878 5880 5882 5883 5887 5890 5891 5893 5894 5893 5894 5895 5897 5898 5900 5901 5903 5904 5906 5909 5910 5912 5913 5913 5914 5915 5916 5918 5920 5921 5923 5924 5926 5927 5929 5931 5933 5934 5936 5937 5939 5940 5942 5943 5944 5945 5946 5946 5947 5948 5949 5950 5951 5952 5953 5954 5954 5954 5955 5956 5957 5958 5958 5959 5961 5962 5962 5963 5963
5823 5826 5829 5833 5836 5839 5842 5845 5850 5854 5856 5857 5862 5865 5867 5870 5873 5876 5878 5880 5883 5887 5888 5890 5892 5892 5892 5893 5894 5896 5898 5899 5901 5902 5904 5906 5907 5909 5911 5912 5913 5914 5914 5915 5917 5918 5920 5922 5923 5925 5926 5928 5930 5932 5934 5936 5937 5939 5940 5942 5943 5944 5944 5945 5946 5947 5948 5949 5950 5951 5952 5953 5954 5954 5954 5955 5956 5957 5958 5958 5960 5961 5962 5963 5963 5964
5821 5824 5827 5830 5833 5837 5841 5844 5848 5851 5852 5856 5860 5863 5866 5869 5871 5874 5877 5879 5883 5886 5886 5888 5890 5890 5891 5892 5893 5895 5897 5899 5900 5901 5903 5905 5907 5908 5910 5911 5913 5914 5914 5915 5916 5917 5919 5920 5922 5924 5926 5928 5929 5931 5933 5935 5937 5938 5940 5941 5942 5943 5944 5945 5946 5947 5948 5949 5950 5951 5952 5953 5953 5954 5955 5955 5956 5957 5958 5959 5960 5961 5962 5963 5964 5964
5820 5822 5824 5828 5832 5836 5839 5842 5845 5847 5851 5854 5857 5860 5864 5866 5869 5872 5875 5877 5882 5884 5885 5887 5889 5889 5888 5889 5892 5895 5897 5898 5900 5901 5903 5905 5906 5908 5909 5910 5911 5912 5913 5914 5915 5917 5918 5919 5921 5923 5925 5927 5929 5930 5932 5934 5936 5938 5939 5941 5942 5943 5944 5945 5945 5946 5947 5949 5950 5951 5952 5952 5953 5954 5955 5956 5956 5957 5958 5959 5960 5961 5962 5963 5964 5965
5818 5820 5823 5827 5830 5833 5836 5839 5842 5845 5848 5851 5854 5858 5861 5863 5866 5869 5871 5875 5879 5881 5882 5884 5887 5886 5885 5888 5892 5894 5896 5898 5899 5900 5902 5904 5905 5907 5908 5909 5910 5911 5912 5913 5914 5916 5917 5919 5921 5922 5924 5926 5928 5930 5931 5933 5935 5936 5938 5940 5941 5942 5943 5944 5945 5946 5947 5948 5949 5950 5951 5952 5953 5953 5955 5956 5957 5957 5958 5959 5960 5961 5962 5963 5964 5964
5815 5818 5822 5824 5827 5830 5833 5835 5838 5842 5845 5848 5852 5855 5858 5861 5863 5865 5868 5872 5876 5877 5879 5883 5885 5883 5883 5887 5891 5892 5894 5896 5898 5900 5901 5903 5904 5906 5907 5909 5909 5910 5911 5912 5914 5915 5917 5918 5920 5921 5923 5925 5926 5928 5930 5932 5934 5935 5937 5939 5940 5941 5942 5943 5944 5946 5946 5948 5949 5950 5951 5952 5952 5953 5954 5955 5956 5957 5958 5959 5960 5961 5962 5963 5964 5964
5813 5815 5818 5821 5824 5827 5830 5833 5835 5839 5843 5846 5849 5853 5856 5858 5861 5864 5867 5871 5874 5876 5878 5882 5883 5881 5881 5885 5888 5891 5893 5895 5896 5898 5900 5902 5903 5904 5906 5908 5909 5910 5911 5913 5914 5916 5916 5917 5919 5921 5922 5924 5925 5926 5928 5930 5932 5934 5936 5937 5939 5940 5941 5943 5944 5945 5946 5947 5948 5949 5950 5951 5952 5953 5954 5955 5956 5956 5957 5959 5960 5961 5962 5963 5964 5964
5810 5812 5816 5820 5823 5825 5828 5831 5834 5838 5841 5843 5846 5850 5852 5854 5857 5862 5864 5868 5873 5875 5877 5880 5879 5876 5879 5884 5886 5889 5891 5893 5895 5896 5898 5900 5902 5903 5905 5906 5908 5909 5911 5912 5914 5916 5917 5917 5917 5919 5921 5922 5924 5925 5927 5929 5931 5932 5934 5936 5937 5939 5940 5941 5942 5943 5945 5946 5947 5949 5950 5951 5952 5953 5954 5955 5955 5956 5957 5958 5959 5961 5962 5963 5963 5963
5808 5810 5814 5817 5820 5823 5825 5828 5831 5835 5837 5839 5844 5846 5848 5850 5854 5858 5860 5864 5870 5872 5874 5875 5874 5875 5879 5881 5883 5885 5887 5890 5892 5894 5896 5898 5900 5902 5903 5905 5907 5908 5909 5911 5912 5914 5916 5916 5916 5917 5919 5920 5922 5923 5925 5927 5929 5930 5932 5933 5935 5937 5938 5940 5941 5942 5944 5945 5946 5948 5949 5950 5951 5952 5953 5954 5955 5956 5957 5958 5959 5960 5961 5962 5962 5963
5806 5808 5812 5814 5817 5820 5823 5826 5829 5831 5833 5837 5840 5842 5845 5850 5853 5855 5858 5861 5866 5869 5871 5871 5871 5874 5877 5877 5879 5882 5884 5887 5890 5892 5894 5896 5898 5900 5901 5903 5905 5906 5908 5909 5910 5912 5913 5915 5916 5917 5918 5919 5920 5921 5923 5925 5926 5928 5930 5931 5933 5935 5936 5937 5939 5940 5942 5944 5945 5946 5948 5949 5950 5952 5953 5954 5955 5956 5957 5958 5958 5959 5960 5961 5962 5962
5804 5806 5809 5812 5814 5817 5821 5823 5825 5827 5831 5833 5835 5838 5843 5847 5850 5852 5855 5858 5862 5867 5867 5866 5867 5870 5872 5872 5875 5879 5882 5885 5887 5890 5892 5894 5896 5898 5900 5901 5903 5904 5906 5907 5909 5910 5911 5913 5914 5915 5917 5918 5918 5919 5920 5922 5924 5926 5928 5930 5931 5933 5934 5936 5937 5939 5940 5942 5943 5944 5946 5947 5949 5950 5952 5953 5955 5956 5956 5957 5958 5959 5959 5960 5961 5962
5802 5804 5806 5808 5811 5815 5818 5819 5821 5824 5828 5830 5833 5836 5839 5842 5845 5848 5851 5854 5859 5864 5863 5863 5865 5866 5866 5868 5873 5877 5880 5883 5885 5888 5890 5892 5894 5896 5898 5899 5901 5902 5904 5905 5907 5908 5909 5910 5910 5912 5914 5916 5917 5918 5919 5920 5922 5924 5926 5928 5930 5931 5933 5934 5936 5938 5939 5940 5941 5943 5944 5946 5947 5949 5951 5952 5954 5955 5955 5956 5957 5958 5959 5959 5960 5961
5799 5801 5803 5806 5809 5811 5813 5816 5819 5822 5825 5827 5829 5832 5835 5839 5842 5844 5847 5850 5855 5860 5861 5861 5863 5860 5860 5866 5871 5874 5877 5880 5883 5885 5888 5890 5892 5894 5896 5898 5899 5900 5901 5903 5904 5905 5906 5907 5908 5910 5911 5914 5916 5916 5917 5918 5920 5922 5924 5925 5928 5930 5931 5933 5935 5936 5937 5938 5940 5941 5943 5944 5945 5947 5949 5951 5952 5953 5954 5955 5956 5957 5958 5958 5959 5960
5796 5799 5801 5803 5806 5808 5811 5815 5817 5820 5822 5824 5826 5829 5832 5836 5838 5841 5845 5848 5851 5855 5856 5859 5858 5854 5858 5866 5869 5871 5874 5877 5880 5883 5885 5888 5890 5892 5894 5895 5897 5898 5899 5900 5902 5903 5904 5905 5906 5908 5909 5912 5913 5914 5916 5917 5919 5920 5921 5923 5925 5927 5929 5931 5933 5935 5936 5937 5938 5939 5941 5942 5944 5945 5947 5949 5951 5952 5953 5954 5955 5956 5957 5958 5958 5959
5795 5797 5798 5801 5803 5806 5810 5813 5815 5817 5820 5822 5824 5826 5830 5832 5834 5838 5841 5843 5847 5850 5852 5854 5852 5850 5857 5864 5865 5868 5871 5874 5877 5879 5882 5885 5887 5889 5891 5893 5895 5896 5897 5898 5899 5900 5902 5903 5905 5906 5908 5910 5911 5913 5914 5915 5917 5918 5919 5921 5922 5925 5927 5929 5931 5932 5934 5936 5937 5938 5939 5940 5942 5944 5945 5947 5949 5950 5952 5953 5954 5955 5956 5957 5957 5958
5793 5795 5796 5799 5801 5804 5807 5809 5812 5814 5817 5819 5821 5823 5826 5828 5831 5834 5837 5839 5843 5845 5847 5850 5848 5847 5854 5859 5860 5864 5867 5870 5874 5876 5879 5882 5884 5885 5887 5889 5892 5894 5895 5896 5897 5898 5899 5900 5902 5904 5905 5907 5909 5910 5912 5913 5915 5917 5918 5919 5921 5922 5924 5925 5928 5930 5932 5934 5935 5936 5937 5939 5940 5942 5944 5945 5947 5948 5950 5951 5952 5954 5955 5955 5956 5957
5790 5792 5794 5797 5799 5801 5803 5806 5808 5811 5813 5815 5818 5820 5822 5825 5828 5831 5833 5835 5838 5839 5843 5846 5845 5844 5850 5854 5856 5859 5863 5866 5869 5872 5875 5878 5880 5882 5884 5886 5889 5891 5893 5894 5895 5896 5897 5898 5900 5901 5903 5904 5905 5907 5909 5911 5913 5914 5916 5917 5918 5919 5920 5922 5925 5927 5929 5931 5932 5933 5935 5937 5938 5940 5942 5944 5945 5946 5947 5949 5951 5952 5953 5954 5955 5956
5787 5789 5792 5794 5795 5797 5799 5801 5803 5807 5810 5812 5815 5817 5819 5822 5825 5827 5829 5832 5833 5835 5839 5841 5840 5842 5847 5850 5852 5855 5859 5862 5865 5868 5871 5873 5876 5879 5880 5883 5885 5888 5890 5892 5893 5894 5894 5896 5897 5898 5900 5901 5902 5904 5907 5908 5910 5912 5914 5915 5916 5917 5918 5920 5922 5924 5926 5927 5929 5931 5932 5934 5936 5938 5939 5941 5942 5943 5945 5947 5949 5950 5951 5952 5953 5954
5785 5787 5789 5790 5791 5793 5795 5797 5800 5804 5806 5808 5811 5814 5815 5818 5821 5823 5825 5827 5829 5831 5833 5835 5837 5840 5843 5845 5848 5852 5855 5858 5861 5864 5866 5869 5872 5874 5877 5879 5881 5884 5886 5888 5889 5891 5892 5893 5894 5896 5897 5898 5900 5902 5903 5905 5907 5909 5911 5913 5915 5916 5916 5917 5919 5921 5923 5925 5926 5928 5930 5931 5933 5935 5936 5938 5939 5941 5942 5944 5946 5948 5949 5950 5952 5953
5782 5784 5786 5788 5789 5791 5793 5795 5798 5800 5802 5804 5807 5810 5812 5814 5816 5818 5820 5822 5825 5827 5828 5830 5834 5835 5837 5841 5844 5847 5850 5853 5856 5859 5862 5865 5867 5870 5872 5875 5877 5879 5882 5884 5886 5887 5889 5890 5891 5893 5894 5896 5897 5899 5900 5902 5905 5906 5908 5910 5912 5914 5915 5916 5918 5919 5921 5922 5924 5926 5928 5929 5931 5932 5933 5935 5936 5938 5939 5941 5943 5945 5946 5948 5950 5951
5780 5782 5784 5786 5787 5789 5791 5793 5794 5796 5799 5801 5804 5806 5808 5810 5812 5814 5816 5818 5821 5823 5824 5827 5830 5830 5833 5837 5839 5842 5845 5848 5851 5854 5857 5860 5863 5865 5868 5870 5872 5875 5877 5880 5882 5883 5885 5887 5888 5889 5891 5893 5894 5896 5897 5899 5901 5903 5905 5907 5909 5911 5913 5915 5916 5918 5919 5920 5922 5924 5926 5927 5928 5930 5931 5932 5934 5935 5937 5938 5940 5942 5944 5946 5947 5948
5777 5779 5781 5783 5784 5786 5788 5789 5791 5793 5795 5797 5800 5803 5805 5807 5808 5810 5812 5815 5817 5818 5820 5823 5825 5826 5830 5833 5834 5837 5840 5843 5846 5849 5852 5855 5858 5860 5863 5866 5868 5870 5873 5875 5877 5879 5881 5883 5884 5885 5887 5889 5891 5893 5895 5896 5898 5900 5902 5904 5906 5908 5910 5912 5914 5916 5917 5918 5920 5922 5923 5924 5926 5927 5929 5930 5932 5933 5934 5935 5937 5939 5941 5943 5944 5946
5774 5776 5778 5779 5781 5782 5784 5786 5788 5789 5791 5794 5796 5798 5801 5803 5805 5807 5809 5811 5813 5814 5816 5818 5820 5822 5825 5828 5830 5832 5834 5837 5841 5844 5847 5850 5853 5856 5858 5861 5863 5866 5868 5870 5872 5874 5876 5878 5880 5881 5883 5885 5887 5889 5892 5894 5895 5896 5898 5900 5902 5905 5907 5909 5911 5913 5914 5916 5917 5919 5920 5922 5923 5925 5927 5928 5929 5930 5931 5933 5934 5936 5938 5940 5941 5943
5772 5774 5775 5777 5778 5779 5781 5782 5784 5785 5787 5789 5791 5793 5796 5798 5800 5803 5805 5807 5809 5810 5812 5815 5815 5817 5820 5823 5826 5827 5829 5832 5835 5838 5841 5844 5847 5850 5854 5856 5859 5861 5863 5865 5867 5869 5871 5873 5875 5878 5879 5881 5884 5886 5889 5891 5892 5894 5895 5896 5898 5901 5903 5905 5908 5909 5911 5912 5913 5915 5917 5919 5921 5923 5925 5926 5927 5928 5929 5931 5932 5934 5935 5937 5938 5940
5770 5771 5773 5774 5775 5776 5778 5779 5780 5782 5784 5784 5786 5789 5792 5793 5796 5799 5801 5802 5805 5806 5808 5809 5809 5812 5817 5819 5820 5822 5824 5827 5830 5833 5836 5838 5841 5845 5848 5851 5854 5856 5858 5860 5862 5865 5867 5869 5871 5873 5876 5878 5881 5883 5886 5888 5890 5891 5892 5893 5895 5897 5899 5902 5904 5906 5908 5909 5910 5912 5914 5915 5917 5919 5922 5923 5925 5926 5927 5928 5930 5932 5933 5934 5935 5937
5769 5770 5771 5772 5773 5774 5775 5776 5778 5779 5779 5780 5783 5786 5787 5789 5791 5793 5795 5798 5800 5801 5802 5803 5805 5809 5813 5814 5815 5817 5820 5822 5825 5827 5830 5833 5835 5839 5842 5845 5848 5850 5853 5856 5858 5860 5862 5864 5867 5869 5871 5874 5876 5879 5882 5884 5886 5888 5889 5890 5891 5893 5895 5897 5900 5902 5904 5906 5907 5909 5910 5911 5913 5915 5917 5919 5921 5922 5923 5925 5927 5929 5930 5931 5932 5934
5767 5768 5768 5770 5770 5771 5772 5774 5774 5775 5775 5778 5780 5781 5782 5784 5786 5788 5790 5793 5795 5795 5797 5799 5801 5804 5806 5808 5810 5813 5815 5817 5820 5822 5824 5827 5829 5832 5835 5839 5842 5844 5847 5850 5852 5854 5857 5859 5862 5865 5867 5869 5872 5874 5877 5880 5882 5885 5886 5887 5888 5890 5891 5893 5896 5898 5900 5902 5904 5905 5907 5908 5910 5912 5914 5915 5916 5918 5920 5922 5924 5926 5927 5929 5930 5932
5764 5765 5766 5767 5768 5768 5770 5770 5771 5772 5773 5775 5776 5777 5779 5780 5782 5783 5785 5787 5789 5790 5792 5793 5796 5798 5801 5803 5805 5807 5809 5812 5813 5815 5818 5820 5823 5825 5829 5832 5835 5838 5840 5843 5846 5848 5851 5854 5856 5859 5862 5864 5866 5869 5872 5874 5877 5880 5882 5884 5885 5886 5888 5889 5892 5894 5896 5898 5899 5901 5903 5905 5907 5908 5910 5911 5913 5915 5917 5919 5921 5923 5924 5926 5927 5929
5760 5761 5762 5763 5764 5765 5766 5766 5767 5769 5770 5771 5772 5773 5775 5776 5777 5779 5780 5781 5784 5786 5786 5788 5791 5793 5795 5797 5799 5802 5804 5806 5808 5809 5811 5814 5816 5819 5822 5825 5828 5831 5834 5836 5839 5842 5844 5847 5850 5853 5855 5858 5861 5863 5866 5869 5871 5874 5877 5879 5882 5883 5885 5886 5888 5890 5892 5894 5895 5897 5899 5900 5902 5904 5905 5907 5909 5912 5914 5916 5918 5920 5921 5923 5925 5926
5757 5757 5758 5759 5760 5761 5762 5762 5764 5764 5765 5766 5768 5769 5770 5771 5773 5774 5775 5777 5780 5781 5781 5783 5785 5787 5789 5791 5794 5796 5798 5800 5802 5801 5803 5808 5811 5812 5815 5818 5821 5824 5827 5830 5832 5835 5838 5840 5843 5845 5848 5851 5854 5857 5860 5863 5865 5868 5871 5874 5876 5879 5881 5883 5884 5886 5888 5890 5891 5893 5894 5896 5898 5900 5901 5903 5905 5908 5910 5912 5913 5915 5917 5919 5921 5923
5754 5754 5754 5755 5755 5756 5757 5758 5759 5759 5760 5762 5763 5764 5766 5767 5768 5770 5771 5772 5774 5776 5777 5779 5780 5781 5783 5785 5787 5789 5792 5794 5794 5793 5797 5803 5806 5807 5809 5812 5814 5817 5820 5823 5826 5828 5831 5834 5836 5839 5841 5844 5847 5850 5853 5856 5859 5861 5864 5867 5870 5873 5876 5878 5880 5881 5883 5884 5886 5887 5889 5891 5893 5895 5897 5900 5902 5904 5905 5906 5907 5909 5911 5913 5916 5918
5751 5751 5752 5752 5752 5752 5753 5754 5754 5754 5756 5757 5758 5759 5761 5762 5763 5765 5766 5767 5769 5771 5772 5773 5775 5776 5778 5780 5781 5783 5785 5787 5787 5788 5793 5797 5799 5800 5802 5804 5807 5810 5813 5815 5818 5821 5824 5826 5829 5832 5834 5837 5840 5843 5846 5849 5852 5855 5857 5860 5864 5867 5869 5872 5874 5876 5878 5879 5881 5883 5884 5886 5888 5890 5893 5895 5898 5899 5900 5900 5901 5902 5904 5907 5909 5912
5749 5749 5749 5749 5749 5750 5750 5750 5750 5750 5751 5753 5753 5755 5756 5757 5758 5759 5760 5762 5765 5766 5766 5768 5769 5771 5773 5774 5775 5776 5778 5780 5782 5784 5787 5789 5791 5794 5796 5798 5800 5803 5805 5809 5811 5814 5817 5819 5822 5824 5827 5830 5833 5835 5838 5841 5844 5847 5850 5853 5856 5859 5863 5865 5867 5870 5872 5874 5876 5877 5879 5881 5883 5885 5887 5890 5891 5892 5893 5894 5894 5895 5898 5900 5902 5905
5746 5746 5746 5747 5747 5747 5747 5747 5747 5747 5748 5749 5749 5751 5751 5752 5753 5754 5756 5758 5759 5759 5760 5762 5763 5765 5767 5768 5769 5770 5772 5774 5776 5778 5780 5782 5784 5787 5790 5792 5794 5796 5798 5801 5804 5807 5810 5812 5815 5817 5820 5823 5825 5828 5831 5834 5837 5840 5842 5845 5848 5852 5855 5858 5860 5863 5866 5869 5871 5872 5873 5875 5878 5879 5881 5883 5884 5885 5885 5887 5888 5889 5890 5893 5896 5899
5742 5743 5743 5743 5743 5744 5744 5744 5744 5744 5744 5745 5746 5747 5747 5748 5748 5750 5751 5752 5752 5753 5755 5756 5757 5759 5761 5762 5763 5764 5766 5767 5769 5771 5773 5775 5777 5780 5782 5785 5788 5790 5791 5794 5796 5799 5802 5805 5808 5810 5812 5815 5818 5821 5823 5826 5829 5832 5835 5838 5840 5844 5847 5850 5853 5855 5859 5863 5866 5867 5868 5870 5872 5874 5875 5877 5877 5878 5880 5883 5886 5887 5889 5892 5895 5898
5738 5739 5739 5739 5740 5740 5740 5740 5740 5741 5741 5742 5743 5743 5743 5744 5744 5745 5746 5746 5747 5748 5749 5750 5751 5753 5754 5755 5757 5758 5759 5761 5762 5764 5766 5767 5770 5773 5775 5777 5780 5783 5785 5786 5788 5791 5795 5798 5800 5803 5805 5808 5810 5813 5816 5819 5821 5824 5827 5830 5833 5836 5839 5843 5845 5848 5852 5856 5859 5861 5863 5864 5866 5868 5869 5870 5871 5873 5876 5880 5883 5885 5888 5892 5895 5895
5734 5735 5735 5735 5736 5736 5736 5736 5737 5737 5737 5738 5738 5739 5739 5740 5740 5741 5741 5741 5742 5743 5743 5744 5745 5746 5747 5749 5750 5752 5753 5755 5756 5757 5759 5760 5762 5765 5768 5770 5772 5775 5777 5779 5781 5783 5786 5789 5793 5795 5798 5800 5802 5805 5808 5811 5814 5817 5820 5823 5826 5828 5831 5835 5838 5841 5845 5849 5852 5854 5856 5858 5860 5862 5863 5864 5866 5869 5872 5875 5877 5879 5883 5886 5888 5888
5731 5731 5731 5731 5731 5732 5732 5732 5732 5733 5733 5733 5734 5735 5735 5736 5736 5736 5736 5737 5737 5738 5738 5739 5740 5741 5742 5743 5744 5746 5747 5748 5749 5750 5752 5753 5755 5757 5759 5762 5764 5766 5769 5771 5774 5776 5778 5781 5784 5787 5790 5792 5794 5797 5800 5803 5806 5809 5812 5815 5818 5821 5824 5827 5830 5833 5838 5842 5845 5847 5850 5851 5853 5855 5857 5859 5861 5863 5867 5869 5872 5874 5877 5880 5882 5883
5727 5727 5726 5726 5727 5727 5727 5727 5727 5727 5728 5729 5730 5730 5730 5731 5731 5732 5732 5732 5733 5733 5734 5734 5735 5735 5736 5737 5738 5740 5741 5741 5742 5743 5744 5746 5747 5749 5751 5753 5755 5757 5760 5762 5765 5768 5771 5773 5776 5778 5781 5784 5786 5789 5792 5796 5799 5802 5805 5807 5810 5813 5815 5819 5822 5825 5829 5834 5837 5840 5843 5845 5846 5848 5850 5853 5855 5858 5861 5864 5866 5869 5871 5874 5876 5878
5722 5722 5721 5721 5722 5721 5721 5722 5722 5723 5723 5724 5724 5725 5725 5726 5726 5727 5727 5728 5728 5729 5729 5729 5730 5730 5731 5732 5733 5734 5735 5735 5736 5737 5738 5739 5740 5741 5742 5744 5746 5749 5751 5753 5757 5759 5762 5765 5768 5770 5773 5776 5778 5780 5784 5788 5791 5794 5797 5800 5802 5805 5808 5810 5814 5817 5821 5825 5829 5832 5835 5838 5840 5842 5844 5847 5850 5853 5855 5858 5860 5862 5865 5867 5869 5871
5716 5716 5716 5716 5716 5716 5716 5716 5717 5718 5718 5718 5719 5719 5720 5721 5721 5721 5722 5722 5723 5724 5724 5724 5725 5725 5726 5726 5727 5728 5729 5729 5730 5731 5732 5733 5733 5734 5734 5736 5738 5740 5742 5744 5747 5750 5753 5756 5759 5762 5765 5768 5770 5772 5775 5779 5783 5786 5789 5792 5795 5797 5800 5803 5805 5809 5813 5817 5821 5825 5828 5831 5833 5836 5838 5841 5844 5847 5850 5852 5853 5856 5859 5860 5861 5865
5709 5709 5710 5710 5710 5710 5711 5711 5712 5712 5712 5712 5713 5714 5714 5714 5715 5716 5716 5717 5717 5718 5719 5719 5719 5720 5720 5721 5721 5722 5723 5723 5724 5725 5726 5726 5727 5727 5728 5728 5730 5731 5733 5735 5738 5741 5743 5746 5749 5753 5756 5759 5761 5763 5766 5770 5773 5777 5781 5784 5787 5790 5793 5795 5798 5801 5805 5808 5812 5816 5820 5824 5827 5829 5832 5834 5837 5840 5844 5846 5847 5850 5853 5854 5856 5859
5704 5704 5703 5703 5704 5705 5706 5706 5706 5706 5706 5706 5707 5708 5708 5708 5709 5710 5710 5711 5711 5712 5713 5713 5713 5714 5715 5715 5716 5716 5717 5718 5718 5719 5719 5720 5720 5721 5721 5722 5722 5724 5725 5727 5728 5731 5733 5736 5738 5742 5746 5749 5752 5755 5758 5761 5764 5768 5771 5775 5779 5782 5785 5788 5790 5793 5796 5800 5804 5808 5812 5816 5819 5822 5825 5828 5830 5833 5836 5839 5840 5842 5846 5848 5850 5852